OneWeb SL0716

operational
NORAD ID: 55177 Int'l Des: 2023-004 Owner: ONEWEBN Country: UK Constellation: oneweb
LEOCIRCULARPOLARONEWEB_TYPE

OneWeb SL0716について

説明を読み込み中...

リアルタイム位置

3D地球を読み込み中...

次回通過

高度履歴

Altitude vs Time

uPlot chart will show altitude changes over time

軌道要素

1 55177U 23004AP 26061.43078854 .00000040 00000-0 69506-4 0 9992
2 55177 87.9137 27.0679 0001733 89.6471 270.4859 13.17648365153527
Epoch: Mar 2, 2026 • Age: 24 hours

現在のステータス

高度 1223.6 km
速度 7.24 km/s
衛星直下点 -83.38°S, 159.47°W
打ち上げ日 Jan 10, 2023
運用期間 3.1 years
タイプ internet

技術仕様

分類 Payload
質量 148.00 kg
乾燥質量 140.00 kg
総質量 148.00 kg
長さ 1.30 m
直径 1.00 m
スパン 5.00 m
形状 Trapezoid+2 pan
製造者 ONEWUS
バスタイプ ARROW
フェーズステータス In Orbit
所有者/国 ONEWEBN/UK

大規模コンステレーション

Loading constellations...